User: anonymous   Login
Location: Ch?enovice
(49.7164°N, 15.2160°E)
Time: 09:09:52
(UTC+00:00)
Language:

Cosmos 2237 - Orbit

View from above orbital plane
View from above orbital plane
View from above satellite
View from above satellite

Ground track
Ground track

The orbit data is extracted from the following two-line orbital elements,

1 22565U 93016A   24200.85419473 -.00000011  00000-0  20703-4 0  9997
2 22565  70.8211 348.9448 0008262 228.7333 131.3076 14.12520087614740
Epoch (UTC): 18 July 2024 20:30:02
Eccentricity: 0.0008262
inclination: 70.8211°
perigee height: 845 km
apogee height: 857 km
right ascension of ascending node: 348.9448°
argument of perigee: 228.7333°
revolutions per day: 14.12520087
mean anomaly at epoch: 131.3076°
orbit number at epoch: 61474

The dashed part of the orbit path shows where the satellite is in the earth's shadow,  

DLR